Regional Weather Roundup
Issued by NWS

Current Version | Previous Version | Text Only | Print | Product List | Glossary On
Versions: 1 2 3 4 5 6 7 8 9 10 11 12 13 14 15 16 17 18 19 20 21 22 23 24 25 26 27 28 29 30 31 32 33 34 35 36 37 38 39 40 41 42 43 44 45 46 47 48 49 50
094
ASUS44 KMEG 191710
RWRTN
TENNESSEE HOURLY STATE WEATHER ROUNDUP
NATIONAL WEATHER SERVICE MEMPHIS TN
1200 PM CDT MON APR 19 2021

TNZ002-004-019-021-049-052-054-088>092-191800-
WEST TENNESSEE

CITY           SKY/WX    TMP DP  RH WIND       PRES   REMARKS
MEMPHIS INTL   MOSUNNY   65  42  43 CALM      30.05F
NWS MEMPHIS      N/A     63 N/A N/A MISG        N/A
JACKSON        SUNNY     64  43  46 W6        30.04F
DYERSBURG      SUNNY     62  44  51 W5        30.04F
SOMERVILLE     SUNNY     63  41  45 VRB5      30.04F
COVINGTON      SUNNY     63  41  45 VRB5      30.04F
UNION CITY     MOSUNNY   64  41  42 NW5       30.01F
PARIS          SUNNY     63  45  51 VRB5      30.01F
HUNTINGDON     MOSUNNY   64  45  48 VRB5      30.02F
LEXINGTON      MOSUNNY   64  43  45 VRB6G13   30.02F
SELMER         SUNNY     64  41  42 VRB6      30.03F
SAVANNAH       SUNNY     63  43  48 NW3       30.03F
$$

TNZ008-025-027-028-033-062-065-066-191800-
NORTH MIDDLE TENNESSEE

CITY           SKY/WX    TMP DP  RH WIND       PRES   REMARKS
NASHVILLE      MOSUNNY   65  43  44 VRB3      30.02F
DICKSON        MOSUNNY   63  39  42 NW10      30.00F
PORTLAND       SUNNY     61  43  51 NE5       30.00F
CLARKSVILLE    SUNNY     63  43  48 VRB5      30.00F
LEBANON        MOSUNNY   63  43  48 VRB3      29.99F
SMYRNA         MOSUNNY   64  42  44 VRB3      30.02F
MURFREESBORO   SUNNY     63  41  45 VRB3      29.99F
COOKEVILLE     MOSUNNY   61  43  51 CALM      30.00F
LIVINGSTON     MOSUNNY   59  43  55 VRB6      29.99F
CROSSVILLE     CLOUDY    56  42  59 NW8       30.00S
ROCKWOOD       PTSUNNY   55  41  58 VRB5G15   29.99R
$$

TNZ061-075-076-078-094-096-097-191800-
SOUTH MIDDLE TENNESSEE

CITY           SKY/WX    TMP DP  RH WIND       PRES   REMARKS
LAWRENCEBURG   SUNNY     61  41  48 VRB3G15   30.02F
LEWISBURG      SUNNY     63  41  45 NE5G12    30.01F
FAYETTEVILLE   PTSUNNY   61  43  51 VRB8      30.03F
TULLAHOMA      MOSUNNY   61  43  51 N8G14     30.00F
WINCHESTER     PTSUNNY   61  43  51 VRB6      30.01F
MCMINNVILLE    PTSUNNY   59  45  58 VRB3G12   30.01S
COLUMBIA       SUNNY     63  39  42 VRB5G12   30.01S
SHELBYVILLE    MOSUNNY   61  43  51 CALM      30.01F
$$

TNZ017-018-042-046-047-191800-
NORTHEAST TENNESSEE

CITY           SKY/WX    TMP DP  RH WIND       PRES   REMARKS
TRI CITIES     PTSUNNY   63  38  39 W12       29.94F
ELIZABETHTON   PTSUNNY   59  39  47 W9        29.93F
GREENEVILLE    MOSUNNY   59  39  47 VRB7      29.94F
$$

TNZ012-013-036-069-073-074-191800-
CENTRAL EAST TENNESSEE

CITY           SKY/WX    TMP DP  RH WIND       PRES   REMARKS
KNOXVILLE      PTSUNNY   62  42  47 VRB5      29.97F
DOWNTOWN KNOXV CLOUDY    61  43  51 CALM      29.97F
GATLINBURG     PTSUNNY   61  41  48 VRB6      29.96F
MORRISTOWN     MOSUNNY   59  41  51 VRB3G13   29.95S
JACKSBORO      PTSUNNY   61  41  48 CALM      30.00S
$$

TNZ083-085-099-191800-
SOUTHEAST TENNESSEE

CITY           SKY/WX    TMP DP  RH WIND       PRES   REMARKS
CHATTANOOGA    MOSUNNY   66  43  43 NE7       29.99F
DAYTON         PTSUNNY   64  45  48 W7        29.98F
$$

SKY/WX REPORTED AS FAIR MEANS FEW OR NO CLOUDS BELOW
12 THOUSAND FEET.





USA.gov is the U.S. government's official web portal to all federal, state and local government web resources and services.